SCP
0 0 0 0 0 0 0 0 0 0 0 0 0 0 0 0 0 0 0 0 0 0 0 0 0 0 0 0 0 0 0 0 0 0 0 0 0 0 0 0 0 0 0 0
0 0 0 0 0 0 0 0 0 0 0 0 0 0 0 0 0 0 0 0 0 0 0 0 0 0 0 0 0 0 0 0 0 0 0 0 0 0 0 0 0 0 0 0
0 0 0 0 0 0 0 0 0 0 0 0 0 0 0 0 0 0 0 0 0 0 0 0 0 0 0 0 0 0 0 0 0 0 0 0 0 0 0 0 0 0 0 0
0 0 0 0 0 0 0 0 0 0 0 0 0 0 0 0 0 0 0 0 0 0 0 0 0 0 0 0 0 0 0 0 0 0 0 0 0 0 0 0 0 0 0 0
0 0 0 0 0 0 0 0 0 0 0 0 0 0 0 0 0 0 0 0 0 0 0 0 0 0 0 0 0 0 0 0 0 0 0 0 0 0 0 0 0 0 0 0
0 0 0 0 0 0 0 0 0 0 0 0 0 0 0 0 0 0 0 0 0 0 0 0 0 0 0 0 0 0 0 0 1 0 0 1 1 0 0 0 0 0 0 0
0 0 0 0 0 0 0 0 0 0 0 0 0 0 0 0 0 0 0 0 0 0 0 0 0 0 0 0 0 0 0 0 0 0 0 0 1 0 0 0 0 0 0 0
0 0 0 0 0 0 0 0 0 0 0 0 0 0 0 0 0 0 0 0 0 0 0 0 0 0 0 0 0 0 0 0 0 0 0 0 0 0 0 0 0 0 0 0
0 0 0 0 0 0 0 0 0 0 0 0 0 0 0 0 0 0 0 0 0 0 0 0 0 0 0 0 0 0 0 0 0 0 0 0 0 0 0 0 0 0 0 0
0 0 0 0 0 0 0 0 0 0 0 0 0 0 0 0 0 0 0 0 0 0 0 0 0 0 0 0 0 0 0 0 0 0 0 0 0 0 1 1 1 1 1 1
0 0 0 0 0 0 0 0 0 0 0 0 0 0 0 0 0 0 0 0 0 0 0 0 0 0 0 0 0 0 0 0 0 0 0 0 0 0 1 1 1 1 1 1
0 0 0 0 0 0 0 0 0 0 0 0 0 0 0 0 0 0 0 0 0 0 0 0 1 1 1 0 0 0 1 1 0 0 0 0 0 0 1 1 1 1 1 1
0 0 0 0 0 0 0 0 0 0 0 0 0 0 0 0 0 0 0 0 0 1 1 1 1 1 1 0 0 0 0 0 0 0 0 0 0 1 1 1 1 1 1 1
0 0 0 0 0 0 0 0 0 0 0 0 0 0 0 0 0 0 0 0 1 1 1 1 1 1 1 0 0 0 0 0 0 0 0 1 1 1 1 1 1 1 1 1
0 0 0 0 0 0 0 0 0 0 0 0 0 0 0 0 0 0 0 1 1 1 1 1 1 1 1 0 0 0 0 0 0 1 1 1 1 1 1 1 1 1 1 1
0 0 0 0 0 0 0 0 0 0 0 0 0 0 0 0 0 0 0 1 1 1 1 1 1 1 1 1 1 1 1 1 1 1 1 1 1 1 1 1 1 1 1 1
0 0 0 0 0 0 0 0 0 0 0 0 0 0 0 0 0 0 0 0 1 1 1 1 1 1 1 1 1 1 1 1 1 1 1 1 1 1 1 1 1 1 1 1
0 0 0 0 0 0 0 0 0 0 0 0 0 0 0 0 0 0 0 1 1 1 1 1 1 1 1 0 0 0 1 1 1 1 1 1 1 1 1 1 1 1 1 1
0 0 0 0 0 0 0 0 0 0 0 0 0 0 0 0 0 0 0 1 1 1 1 1 1 1 1 0 0 0 1 1 1 1 1 1 1 1 1 1 1 1 1 1
0 0 0 0 0 0 0 0 0 0 0 0 0 0 0 0 0 1 1 1 1 1 1 1 1 1 1 0 1 1 1 1 1 1 1 1 1 1 1 1 1 1 1 1
0 0 0 0 0 0 0 0 0 0 0 0 0 0 0 0 1 1 1 1 1 1 1 1 1 1 1 1 1 1 1 1 1 1 1 1 1 1 1 1 1 1 1 0
0 0 0 0 0 0 0 0 0 0 0 0 0 0 0 1 1 1 1 1 1 1 1 1 1 0 0 1 1 1 1 1 1 0 0 0 0 1 0 0 1 1 0 0
0 0 0 0 0 0 0 0 0 0 0 0 0 1 1 1 1 1 0 0 0 0 0 0 0 0 0 0 1 1 1 0 0 0 0 0 0 0 0 0 0 0 0 0
0 0 0 0 0 0 0 0 0 0 0 0 0 0 0 0 0 0 0 0 0 0 0 0 0 0 0 0 0 0 1 0 0 0 0 0 0 0 0 0 0 0 0 0
0 0 0 0 0 0 0 0 0 0 0 0 0 0 0 0 0 0 0 0 0 0 0 0 0 0 0 0 0 0 0 0 0 0 0 0 0 0 0 0 0 0 0 0
0 0 0 0 0 0 0 0 0 0 0 0 0 0 0 0 0 0 0 0 0 0 0 0 0 0 0 0 0 0 0 0 0 0 0 0 0 0 0 0 0 0 0 0
Wind_Speed
7 9 7 5 6 7 6 7 5 2 1 5 6 5 3 4 6 6 7 7 7 7 7 7 6 5 5 6 5 5 5 5 4 3 3 3 2 2 2 2 2 2 2 2
8 10 6 4 5 7 8 8 6 2 1 5 5 5 3 4 5 6 7 7 7 8 8 7 7 7 6 6 6 6 6 5 5 3 2 2 2 2 1 1 1 2 2 2
12 3 3 6 7 8 9 8 6 4 4 6 7 7 6 5 5 5 6 7 7 8 8 9 8 8 7 7 6 5 5 5 5 5 4 3 3 3 2 2 2 2 2 2
10 6 6 8 8 8 7 3 5 6 8 4 5 6 4 6 6 6 7 7 7 7 8 8 9 8 8 7 6 6 5 5 4 5 4 4 3 3 2 2 1 2 2 2
7 7 8 9 7 7 4 3 6 7 8 8 6 8 3 5 5 6 7 7 7 7 7 8 8 8 7 7 6 6 6 5 5 5 5 5 4 3 2 2 2 2 2 3
8 6 7 7 5 5 4 5 7 8 9 8 5 7 3 3 2 3 5 6 6 6 7 7 7 8 7 7 6 6 6 5 5 5 5 5 4 4 3 3 2 3 2 2
11 10 8 7 7 8 9 9 7 7 7 4 2 6 2 1 0 2 3 4 6 6 7 7 8 8 8 7 7 6 6 6 6 6 5 5 5 5 5 4 3 3 2 2
10 10 10 9 10 8 10 10 8 7 6 3 5 6 0 1 1 2 2 4 5 6 6 7 8 8 8 7 7 7 6 6 5 5 4 4 5 4 3 4 3 3 2 2
8 6 5 6 8 9 9 10 9 10 8 8 5 3 3 3 3 3 4 4 4 5 6 6 7 7 7 7 7 6 7 6 5 5 5 4 4 4 3 3 4 3 2 2
6 6 6 6 7 7 9 7 7 8 7 9 6 6 3 4 3 4 4 4 4 5 6 6 6 6 5 5 5 5 6 6 5 5 5 4 4 4 3 3 3 2 3 2
8 9 7 8 9 9 9 9 8 7 8 9 7 2 2 1 1 3 3 3 4 4 5 6 6 6 6 5 5 5 5 5 5 5 4 4 4 4 4 4 4 3 3 3
7 8 8 8 4 5 9 9 10 9 7 8 9 2 4 1 0 2 2 2 2 3 4 5 5 5 5 6 5 5 5 5 5 5 5 5 4 4 5 4 3 3 3 3
4 7 8 9 9 8 8 9 10 10 8 8 10 3 5 2 0 0 1 2 2 3 3 4 4 4 5 5 5 4 4 4 5 5 6 5 5 5 5 4 3 3 3 3
6 8 10 10 5 6 8 9 9 11 9 9 9 7 2 1 1 0 0 1 2 3 3 3 4 4 5 5 5 4 4 4 4 5 6 5 6 5 5 4 4 4 3 3
6 8 9 9 6 7 9 9 10 12 11 11 8 7 5 2 2 1 1 1 1 2 2 2 3 3 4 4 5 5 5 5 5 5 6 5 5 5 5 4 4 4 4 4
5 7 8 8 7 8 10 10 11 10 10 10 8 7 2 1 0 0 1 1 1 1 1 1 2 3 4 5 5 5 5 5 6 6 6 5 5 5 5 5 4 4 4 3
6 7 8 9 7 9 11 10 10 9 8 8 8 4 1 1 1 1 1 2 2 1 1 1 1 2 3 4 4 5 5 5 5 5 5 5 5 5 5 5 4 4 4 4
7 8 7 8 8 13 3 0 5 7 6 6 4 3 2 2 2 1 1 1 1 1 1 1 1 1 1 2 3 4 5 5 5 5 5 5 5 5 5 4 4 4 4 3
8 8 8 8 11 10 6 4 5 6 6 3 4 3 1 1 3 2 1 1 0 0 1 1 2 1 1 1 2 3 4 4 5 5 5 5 5 4 4 4 4 4 3 3
7 8 9 9 12 12 4 3 2 6 7 2 3 2 2 3 5 1 2 1 1 1 1 0 0 0 1 1 1 2 3 3 4 3 3 3 4 4 4 4 4 3 3 3
8 8 11 12 12 8 2 1 4 9 2 1 1 2 3 3 4 3 1 1 1 1 1 1 1 1 1 0 1 2 2 2 2 1 2 2 3 3 3 3 3 3 4 3
8 8 9 10 12 6 4 1 3 3 4 2 2 2 2 2 1 1 1 1 1 1 1 1 1 2 2 1 1 2 1 1 1 1 2 2 2 3 2 3 3 3 3 3
6 5 5 5 3 3 2 2 3 3 2 2 3 2 2 2 2 2 2 1 1 2 1 1 1 2 2 1 0 1 1 1 1 1 1 2 2 2 2 3 3 4 4 3
3 3 5 5 3 1 1 2 2 3 3 4 3 3 2 2 2 2 2 1 1 1 2 2 1 1 2 2 1 1 0 0 1 1 1 2 2 2 2 2 3 3 3 3
4 3 5 6 3 2 2 1 2 3 3 3 3 3 3 3 3 3 2 2 2 1 2 2 2 2 2 1 1 1 0 1 1 1 2 2 2 2 2 2 1 2 1 2
4 5 6 4 3 4 4 4 5 4 4 4 3 3 3 3 3 3 3 2 2 2 2 3 3 2 2 1 1 1 0 1 1 2 2 2 2 2 2 2 2 1 1 1
Wind_Direction
203 232 234 242 260 284 285 281 281 301 319 273 271 277 231 182 197 199 192 188 187 188 177 174 177 174 173 173 175 180 181 170 180 181 188 185 186 196 189 190 181 194 204 201
214 228 244 262 258 254 255 261 267 238 241 272 278 270 229 195 207 207 202 198 193 186 180 179 180 182 180 174 180 184 186 182 188 179 189 195 210 206 190 195 177 209 208 217
236 242 210 233 235 240 248 262 277 281 258 240 267 240 200 188 191 196 204 204 198 192 187 184 185 187 185 181 181 182 186 188 192 188 190 189 193 211 198 193 198 211 216 218
238 234 223 235 236 249 248 261 270 266 264 255 263 280 193 182 187 194 200 200 197 192 190 186 185 186 189 183 178 180 182 186 189 196 201 203 211 217 213 219 206 205 212 219
220 216 224 236 242 246 271 274 258 262 267 267 238 264 207 175 204 201 193 193 189 187 187 185 185 182 186 182 178 172 174 181 188 199 198 210 220 224 214 205 192 227 207 216
244 222 238 246 239 234 225 225 230 239 254 251 249 268 253 173 215 194 184 183 181 178 179 182 180 176 179 177 176 170 171 181 190 201 204 215 222 229 227 218 212 216 211 210
219 216 212 224 220 204 225 241 238 229 227 242 184 256 281 51 218 221 195 176 172 176 178 178 175 175 177 179 179 176 177 186 195 201 207 209 217 222 221 229 219 236 232 218
226 214 201 210 231 226 223 246 265 280 280 259 202 247 173 111 184 191 198 182 174 176 176 177 176 177 178 179 183 184 182 190 197 204 209 215 218 228 225 229 246 233 246 249
239 225 174 206 228 241 226 238 262 272 274 274 247 223 212 184 199 192 194 185 178 177 174 175 177 178 178 179 186 189 185 188 195 201 206 211 215 227 233 229 228 231 238 240
251 247 203 189 205 220 256 249 235 248 268 265 250 241 236 192 215 199 199 190 176 173 172 169 171 174 178 180 182 187 188 189 195 199 210 198 203 206 215 226 218 231 246 251
246 242 215 203 219 217 207 222 241 250 261 271 267 253 70 208 235 216 200 186 179 177 171 168 170 175 177 180 181 180 184 186 192 194 200 207 197 194 201 210 218 219 226 231
237 248 241 224 212 268 240 235 230 242 244 259 275 268 94 92 250 234 200 168 157 168 170 169 171 170 175 182 183 179 184 187 190 189 197 201 197 198 200 200 211 216 217 222
221 245 233 212 195 202 224 225 236 252 253 254 262 243 113 118 155 275 204 168 157 174 175 169 170 177 184 187 186 190 195 196 190 191 199 198 199 201 208 202 202 210 209 217
254 244 252 258 261 213 217 220 228 241 248 252 259 272 238 257 284 302 226 194 178 176 178 177 181 189 190 195 191 194 198 201 194 197 205 201 205 208 212 209 205 209 210 211
252 247 250 269 275 251 240 233 226 238 255 265 266 267 276 318 314 318 275 221 177 179 184 185 195 198 202 205 200 200 200 198 195 199 208 206 209 206 212 214 213 212 215 211
257 256 244 242 243 242 241 239 237 241 252 258 261 268 310 17 338 184 192 206 194 213 200 195 200 206 213 211 204 201 204 202 198 201 205 203 208 204 208 212 212 208 207 209
241 241 246 242 230 237 235 237 236 237 244 251 255 271 235 233 230 210 211 218 209 201 200 223 248 233 224 218 208 208 206 205 203 203 202 203 207 205 206 215 209 209 208 205
250 246 244 246 232 237 243 225 253 244 246 258 271 277 263 261 229 196 205 237 211 213 212 215 253 250 237 222 210 216 210 202 204 204 203 204 207 209 203 209 211 212 216 213
235 238 245 243 240 238 222 201 228 239 242 249 252 252 244 235 205 173 71 41 353 198 206 228 239 225 204 201 196 201 208 199 201 205 205 207 207 207 203 207 207 208 211 214
204 230 244 241 248 247 231 135 226 245 233 222 240 239 239 244 242 148 57 47 49 38 17 37 133 132 111 127 162 190 203 198 205 210 209 205 206 208 204 205 205 200 207 218
205 216 231 241 246 248 44 141 216 237 269 70 262 259 246 264 316 15 30 64 56 37 42 66 54 34 39 115 160 188 205 208 209 205 207 208 215 214 211 209 204 206 214 214
239 232 227 238 243 234 61 199 253 352 21 360 323 295 286 310 339 357 348 9 5 7 45 61 55 24 23 59 165 186 198 199 203 203 200 200 209 232 208 202 204 212 222 213
250 279 276 265 277 21 27 346 1 348 340 338 323 326 309 301 324 343 326 320 358 347 351 353 34 31 20 16 344 218 203 197 195 183 197 201 203 219 231 217 211 215 215 236
224 293 273 260 235 280 349 17 11 360 345 331 323 320 309 311 315 314 314 306 322 340 324 318 341 350 356 352 342 328 348 171 197 209 225 210 208 220 206 235 235 242 242 239
292 269 253 250 258 256 242 326 338 334 325 319 322 318 306 301 297 295 276 264 261 266 281 292 299 302 313 331 338 345 133 219 229 241 247 239 228 219 218 214 252 264 270 297
261 263 265 264 276 277 280 311 307 303 305 307 306 304 299 293 287 285 275 266 258 259 270 274 279 285 296 315 324 320 277 228 242 243 248 254 239 211 226 208 190 140 249 122